Location: Castrojimeno
(41.3966°N, 3.8473°W)
Time: 12:33:38
(UTC+00:00)

CZ-4B R/B - Pass Details

Date: 15 May 2026
Orbit: 700 x 797 km, 98.9° (Epoch: 8 June)

Event Time Altitude Azimuth Distance (km) Brightness Sun altitude
Exits shadow 21:23:15 33° 118° (ESE) 1,182 4.0 -18.1°
Maximum altitude 21:24:53 46° 70° (ENE) 954 3.8 -18.3°
Drops below altitude 10° 21:29:29 10° 358° (N) 2,213 6.6 -18.8°
Sets 21:31:51 0° 353° (N) 3,152 7.6 -19.1°
